Location: La Trinit�
(48.1620°N, 3.4512°W)
Time: 09:36:36
(UTC+00:00)

Cosmos 1242 Rocket - Pass Details

Date: 08 May 2021
Orbit: 445 x 484 km, 81.2° (Epoch: 13 June)

Event Time Altitude Azimuth Distance (km) Brightness Sun altitude
Exits shadow 20:24:00 - 156° (SSE) 1,909 5.0 -7.4°
Reaches altitude 10° 20:24:44 10° 150° (SSE) 1,641 4.7 -7.5°
Maximum altitude 20:27:45 26° 93° (E) 964 3.6 -7.9°
Drops below altitude 10° 20:30:47 10° 35° (NE) 1,635 5.3 -8.3°
Sets 20:33:04 0° 23° (NNE) 2,509 6.4 -8.6°
